Вернуться в каталог

COSMOS 2251 DEB

АктивенLEO
NORAD 34317·DEBRIS·🇷🇺 Russia

Запущен Jun 16, 1993 с Plesetsk Cosmodrome

Loading…

Ближайшие Пролёты (ближайшие 24 часа)

TLE

СвежийSource: Space-Track

Эпоха: Sep 14, 2026, 21:28 UTC

1 34317U 93036NP  26257.89505192  .00000500  00000-0  43640-3 0  9995
2 34317  73.9233 300.9865 0336804 238.6724 305.8805 13.65444290873885

Отслеживайте COSMOS 2251 DEB в реальном времени с AllMySat

Download on the App Store